EW7082 Weather Reports


Display with metric or nautical units.
time (UTC)temp
F
wind
direction
speed
MPH
gust
MPH
rain 1hr
in
rain 24hr
in
rain mn
in
humidity
%
barometer
mb
20260903053204 50 218 1.0 2.0 0.00 0.00 0.00 93 1005.4
20260903052703 50 218 0.0 0.0 0.00 0.00 0.00 93 1005.4
20260903052203 50 218 1.0 2.0 0.00 0.00 0.00 93 1005.4
20260903051705 50 218 1.0 2.0 0.00 0.00 0.00 93 1005.3
20260903050205 51 218 0.0 0.0 0.00 0.00 0.00 92 1005.4
20260903045703 51 218 0.0 0.0 0.00 0.00 0.00 92 1005.3
20260903045205 51 218 0.0 1.0 0.00 0.00 0.00 92 1005.3
20260903044706 51 218 0.0 2.0 0.00 0.00 0.00 91 1005.3
20260903044204 51 218 2.0 3.0 0.00 0.00 0.00 91 1005.2
20260903043704 52 216 3.0 3.0 0.00 0.00 0.00 90 1005.1
20260903043205 52 196 0.0 3.0 0.00 0.00 0.00 90 1005.1
20260903042204 53 305 1.0 2.0 0.00 0.00 0.00 90 1005.1
20260903041705 53 305 1.0 3.0 0.00 0.00 0.00 89 1005.0
20260903041204 53 169 0.0 2.0 0.00 0.00 0.00 87 1004.9
20260903040704 54 177 2.0 3.0 0.00 0.00 0.00 88 1004.8
20260903040204 55 352 1.0 2.0 0.00 0.00 0.00 89 1004.7
20260903035204 55 106 1.0 3.0 0.00 0.00 0.00 89 1004.5
20260903034204 56 44 1.0 6.0 0.00 0.00 0.00 88 1004.4
20260903033204 56 97 5.0 8.0 0.00 0.00 0.00 88 1004.1
20260903032705 56 94 2.0 8.0 0.00 0.00 0.00 88 1003.8
20260903032204 56 111 4.0 7.0 0.00 0.00 0.00 87 1003.6
20260903031704 57 117 1.0 3.0 0.00 0.00 0.00 86 1003.4
20260903030704 57 20 1.0 3.0 0.00 0.00 0.00 86 1003.2
20260903030205 58 13 3.0 5.0 0.00 0.00 0.00 86 1003.1
20260903025703 58 358 3.0 5.0 0.00 0.00 0.00 85 1003.1
20260903025204 58 313 2.0 3.0 0.00 0.00 0.00 85 1002.9
20260903024705 58 273 0.0 2.0 0.00 0.00 0.00 85 1002.9
20260903024204 59 40 0.0 5.0 0.00 0.00 0.00 85 1002.9
20260903023704 59 24 4.0 8.0 0.00 0.00 0.00 84 1002.9
20260903023204 59 305 2.0 6.0 0.00 0.00 0.00 84 1002.8
20260903022705 60 1 2.0 3.0 0.00 0.00 0.00 83 1002.8
20260903022203 60 252 0.0 3.0 0.00 0.00 0.00 83 1002.6
20260903021704 60 231 1.0 8.0 0.00 0.00 0.00 83 1002.4
20260903021204 60 305 2.0 3.0 0.00 0.00 0.00 83 1002.3
20260903020704 60 336 2.0 7.0 0.00 0.00 0.00 83 1002.1
20260903020204 60 269 2.0 10.0 0.00 0.00 0.00 83 1002.0
20260903015703 60 338 5.0 12.0 0.00 0.00 0.00 83 1002.0
20260903015204 61 297 7.0 14.0 0.00 0.00 0.00 81 1001.8
20260903014705 62 304 9.0 13.0 0.00 0.00 0.00 80 1001.7
20260903014204 63 285 2.0 3.0 0.00 0.00 0.00 82 1001.5
20260903013705 63 159 2.0 6.0 0.00 0.00 0.00 81 1001.2
20260903013205 63 163 3.0 5.0 0.00 0.00 0.00 81 1001.2
20260903012704 62 149 3.0 5.0 0.00 0.00 0.00 81 1001.3
20260903012204 62 94 3.0 12.0 0.00 0.00 0.00 81 1001.1
20260903011705 62 100 6.0 12.0 0.00 0.00 0.00 81 1000.8
20260903010704 62 125 9.0 20.0 0.00 0.00 0.00 81 1000.6
20260903010204 62 127 9.0 18.0 0.00 0.00 0.00 81 1000.6
20260903004705 62 103 10.0 16.0 0.00 0.00 0.00 80 1000.6
20260903004203 62 128 8.0 14.0 0.00 0.00 0.00 80 1000.4
20260903003704 62 102 8.0 17.0 0.00 0.00 0.00 80 1000.3
20260903003204 62 112 9.0 16.0 0.00 0.00 0.00 80 1000.2
20260903002704 62 117 9.0 20.0 0.00 0.00 0.00 80 1000.1
20260903002204 62 109 11.0 20.0 0.00 0.00 0.00 80 999.9
20260903001705 62 103 12.0 22.0 0.00 0.00 0.00 80 999.9
20260903001205 62 89 15.0 21.0 0.00 0.00 0.00 80 999.9
20260903000205 62 114 12.0 22.0 0.00 0.00 0.00 79 1000.0
20260902235204 62 114 13.0 21.0 0.00 0.00 0.00 78 1000.1
20260902234204 62 111 13.0 26.0 0.00 0.00 0.00 78 1000.1
20260902233704 62 102 13.0 22.0 0.00 0.00 0.00 78 1000.1
20260902233205 62 100 13.0 23.0 0.00 0.00 0.00 77 1000.1
20260902232703 63 113 14.0 25.0 0.00 0.00 0.00 76 1000.1
20260902231203 64 106 12.0 22.0 0.00 0.00 0.00 71 1000.4
20260902230705 65 105 14.0 20.0 0.00 0.00 0.00 70 1000.5
20260902230204 65 116 10.0 23.0 0.00 0.00 0.00 68 1000.6
20260902225704 66 100 13.0 24.0 0.00 0.00 0.00 66 1000.7
20260902225204 66 113 10.0 17.0 0.00 0.00 0.00 64 1000.7
20260902224204 66 104 12.0 26.0 0.00 0.00 0.00 61 1000.7
20260902223705 67 108 13.0 20.0 0.00 0.00 0.00 59 1000.8
20260902223205 67 104 13.0 20.0 0.00 0.00 0.00 60 1000.5
20260902222204 66 126 12.0 24.0 0.00 0.00 0.00 63 1000.6
20260902221705 64 112 3.0 13.0 0.00 0.00 0.00 75 1000.6
20260902221205 64 167 2.0 9.0 0.00 0.00 0.00 77 1000.6
20260902220704 65 273 4.0 12.0 0.00 0.00 0.00 75 1000.5
20260902220204 66 236 6.0 12.0 0.00 0.00 0.00 70 1000.4
20260902215704 66 175 3.0 7.0 0.00 0.00 0.00 70 1000.5
20260902214705 65 305 3.0 8.0 0.00 0.00 0.00 76 1000.6
20260902213704 64 209 2.0 6.0 0.00 0.00 0.00 76 1000.6
20260902213205 64 285 5.0 8.0 0.00 0.00 0.00 76 1000.5
20260902212705 65 293 3.0 8.0 0.00 0.00 0.00 76 1000.7
20260902212205 65 295 3.0 7.0 0.00 0.00 0.00 75 1000.7
20260902211705 66 222 2.0 8.0 0.00 0.00 0.00 74 1000.7
20260902211204 68 209 11.0 15.0 0.00 0.00 0.00 69 1000.6
20260902210703 69 150 7.0 20.0 0.00 0.00 0.00 64 1000.7
20260902205704 68 116 7.0 16.0 0.00 0.00 0.00 69 1000.9
20260902204704 66 165 7.0 14.0 0.00 0.00 0.00 76 1000.9
20260902203703 64 279 7.0 12.0 0.00 0.00 0.00 80 1001.2
20260902203204 64 286 8.0 12.0 0.00 0.00 0.00 81 1001.3
20260902202704 64 305 7.0 10.0 0.00 0.00 0.00 80 1001.4
20260902201705 64 298 6.0 8.0 0.00 0.00 0.00 81 1001.6
20260902201204 63 307 4.0 8.0 0.00 0.00 0.00 81 1001.7
20260902200704 63 312 4.0 8.0 0.00 0.00 0.00 82 1001.8
20260902200206 63 290 4.0 7.0 0.00 0.00 0.00 81 1001.9
20260902195705 63 320 3.0 8.0 0.00 0.00 0.00 81 1001.9
20260902195203 63 305 6.0 9.0 0.00 0.00 0.00 81 1001.9
20260902194705 63 289 5.0 8.0 0.00 0.00 0.00 82 1001.9
20260902194204 63 278 4.0 8.0 0.00 0.00 0.00 81 1002.1
20260902193704 63 278 7.0 9.0 0.00 0.00 0.00 81 1002.1
20260902192704 63 301 5.0 7.0 0.00 0.00 0.00 80 1002.2
20260902192204 63 311 4.0 5.0 0.00 0.00 0.00 81 1002.3
20260902191204 63 290 5.0 7.0 0.00 0.00 0.00 81 1002.4
20260902190704 63 283 7.0 9.0 0.00 0.00 0.00 80 1002.4
20260902190205 63 310 5.0 9.0 0.00 0.00 0.00 80 1002.5
20260902185704 63 294 5.0 8.0 0.00 0.00 0.00 81 1002.5
20260902185206 63 303 6.0 10.0 0.00 0.00 0.00 81 1002.6
20260902184706 63 276 3.0 6.0 0.00 0.00 0.00 82 1002.7
20260902184204 63 325 4.0 6.0 0.00 0.00 0.00 82 1002.7
20260902183703 63 300 3.0 5.0 0.00 0.00 0.00 82 1002.9
20260902183205 63 297 3.0 6.0 0.00 0.00 0.00 82 1003.0
20260902182704 63 289 3.0 5.0 0.00 0.00 0.00 82 1002.9
20260902182204 63 294 3.0 7.0 0.00 0.00 0.00 82 1003.0
20260902181704 63 301 3.0 7.0 0.00 0.00 0.00 83 1003.0
20260902181203 63 291 5.0 7.0 0.00 0.00 0.00 83 1003.1
20260902180206 63 301 2.0 3.0 0.00 0.00 0.00 84 1003.3
20260902175704 63 297 3.0 6.0 0.00 0.00 0.00 83 1003.3
20260902175204 63 281 3.0 7.0 0.00 0.00 0.00 83 1003.3
20260902174705 63 279 3.0 5.0 0.00 0.00 0.00 83 1003.3
20260902173704 62 277 3.0 3.0 0.00 0.00 0.00 84 1003.5
20260902173204 62 282 3.0 6.0 0.00 0.00 0.00 84 1003.5
20260902172704 62 263 2.0 3.0 0.00 0.00 0.00 84 1003.5
20260902172205 62 294 1.0 3.0 0.00 0.00 0.00 84 1003.8
20260902171704 62 286 3.0 6.0 0.00 0.00 0.00 85 1003.6
20260902171204 62 322 2.0 3.0 0.00 0.00 0.00 85 1003.6
20260902170705 62 277 1.0 3.0 0.00 0.00 0.00 85 1003.8
20260902170204 62 285 2.0 3.0 0.00 0.00 0.00 86 1003.9
20260902165704 61 285 1.0 3.0 0.00 0.00 0.00 86 1004.0
20260902165205 61 281 2.0 3.0 0.00 0.00 0.00 86 1003.9
20260902164704 61 333 1.0 3.0 0.00 0.00 0.00 87 1003.9
20260902164204 61 302 2.0 3.0 0.00 0.00 0.00 87 1003.9
20260902163704 61 338 2.0 3.0 0.00 0.00 0.00 87 1003.9
20260902163205 61 355 2.0 3.0 0.00 0.00 0.00 88 1004.2
20260902162703 61 321 2.0 3.0 0.00 0.00 0.00 88 1004.2
20260902162204 60 238 2.0 3.0 0.00 0.00 0.00 88 1004.2
20260902161705 60 258 2.0 3.0 0.00 0.00 0.00 89 1004.2
20260902161203 60 235 1.0 3.0 0.00 0.00 0.00 89 1004.3
20260902160705 60 313 2.0 3.0 0.00 0.00 0.00 90 1004.2
20260902160205 60 271 3.0 3.0 0.00 0.00 0.00 91 1004.3
20260902155704 60 253 2.0 3.0 0.00 0.00 0.00 92 1004.4
20260902155203 59 297 2.0 3.0 0.00 0.00 0.00 92 1004.4
20260902154706 59 309 2.0 3.0 0.00 0.00 0.00 92 1004.5
20260902154204 59 0 2.0 3.0 0.00 0.00 0.00 93 1004.6
20260902153704 58 270 1.0 3.0 0.00 0.00 0.00 94 1004.6
20260902153204 58 279 1.0 3.0 0.00 0.00 0.00 95 1004.7
20260902152704 57 325 0.0 1.0 0.00 0.00 0.00 95 1004.7
20260902152204 57 325 0.0 1.0 0.00 0.00 0.00 95 1004.8
20260902151704 57 325 0.0 0.0 0.00 0.00 0.00 95 1004.7
20260902151204 56 325 0.0 1.0 0.00 0.00 0.00 96 1004.8
20260902150205 56 14 0.0 2.0 0.00 0.00 0.00 96 1004.8
20260902145703 56 261 0.0 1.0 0.00 0.00 0.00 97 1005.0
20260902145204 55 257 0.0 0.0 0.00 0.00 0.00 96 1004.9
20260902144204 54 257 0.0 1.0 0.00 0.00 0.00 96 1004.9
20260902143704 54 257 0.0 1.0 0.00 0.00 0.00 96 1005.1
20260902141203 52 257 0.0 0.0 0.00 0.00 0.00 96 1005.0
20260902140705 52 257 1.0 1.0 0.00 0.00 0.00 96 1005.1
20260902135204 51 207 1.0 2.0 0.00 0.00 0.00 95 1005.1
20260902134705 52 171 0.0 0.0 0.00 0.00 0.00 96 1005.2
20260902133704 51 171 0.0 0.0 0.00 0.00 0.00 96 1005.1
20260902132704 51 171 0.0 0.0 0.00 0.00 0.00 95 1005.1
20260902132203 51 171 0.0 0.0 0.00 0.00 0.00 95 1005.1
20260902131704 51 171 0.0 2.0 0.00 0.00 0.00 95 1005.0
20260902131203 51 171 0.0 0.0 0.00 0.00 0.00 94 1004.9
20260902130204 52 171 0.0 3.0 0.00 0.00 0.00 94 1005.0
20260902125705 52 171 1.0 2.0 0.00 0.00 0.00 95 1005.1
20260902125204 52 223 0.0 0.0 0.00 0.00 0.00 95 1005.0
20260902124705 53 223 0.0 2.0 0.00 0.00 0.00 95 1005.1
20260902123703 53 266 0.0 1.0 0.00 0.00 0.00 95 1005.0
20260902123205 53 266 1.0 2.0 0.00 0.00 0.00 95 1005.1
20260902122704 53 266 0.0 1.0 0.00 0.00 0.00 95 1005.2
20260902122204 53 266 1.0 2.0 0.00 0.00 0.00 95 1005.2
20260902121204 53 223 0.0 1.0 0.00 0.00 0.00 94 1005.3
20260902120204 54 265 1.0 2.0 0.00 0.00 0.00 94 1005.4
20260902115704 54 275 0.0 1.0 0.00 0.00 0.00 94 1005.4
20260902113704 55 275 0.0 1.0 0.00 0.00 0.00 94 1005.8
20260902112205 55 217 0.0 1.0 0.00 0.00 0.00 94 1005.9
20260902111705 55 217 1.0 2.0 0.00 0.00 0.00 94 1006.1
20260902111203 56 217 1.0 2.0 0.00 0.00 0.00 94 1006.2
20260902110705 56 77 0.0 1.0 0.00 0.00 0.00 94 1006.1
20260902110204 56 77 0.0 2.0 0.00 0.00 0.00 94 1006.1
20260902105705 56 73 1.0 2.0 0.00 0.00 0.00 94 1006.2
20260902104204 56 80 1.0 1.0 0.00 0.00 0.00 94 1006.2
20260902103704 56 80 0.0 1.0 0.00 0.00 0.00 94 1006.3
20260902103205 56 80 0.0 1.0 0.00 0.00 0.00 94 1006.3
20260902102705 56 80 0.0 0.0 0.00 0.00 0.00 94 1006.5
20260902102204 56 80 0.0 0.0 0.00 0.00 0.00 94 1006.5
20260902101706 56 80 0.0 0.0 0.00 0.00 0.00 94 1006.7
20260902100705 56 80 1.0 2.0 0.00 0.00 0.00 94 1006.7
20260902100204 56 264 0.0 2.0 0.00 0.00 0.00 94 1006.7
20260902095704 56 264 1.0 2.0 0.00 0.00 0.00 94 1006.7
20260902095204 55 264 0.0 1.0 0.00 0.00 0.00 94 1006.7
20260902094705 55 264 1.0 2.0 0.00 0.00 0.00 94 1006.8
20260902094204 55 232 1.0 2.0 0.00 0.00 0.00 94 1006.8
20260902093704 55 232 0.0 1.0 0.00 0.00 0.00 94 1006.9
20260902093205 55 232 2.0 3.0 0.00 0.00 0.00 94 1007.0
20260902092704 56 213 0.0 1.0 0.00 0.00 0.00 94 1007.0
20260902092204 55 213 0.0 0.0 0.00 0.00 0.00 94 1007.0
20260902091204 55 302 1.0 2.0 0.00 0.00 0.00 93 1007.2
20260902090704 55 302 1.0 2.0 0.00 0.00 0.00 93 1007.2
20260902090206 55 295 1.0 2.0 0.00 0.00 0.00 94 1007.3
20260902085703 55 51 2.0 3.0 0.00 0.00 0.00 93 1007.3
20260902085205 55 202 1.0 3.0 0.00 0.00 0.00 93 1007.3
20260902084705 55 202 1.0 3.0 0.00 0.00 0.00 92 1007.4
20260902084205 56 202 0.0 1.0 0.00 0.00 0.00 92 1007.3
20260902083704 56 202 0.0 1.0 0.00 0.00 0.00 92 1007.4
20260902083205 56 202 1.0 2.0 0.00 0.00 0.00 92 1007.6
20260902082705 56 202 0.0 1.0 0.00 0.00 0.00 92 1007.6
20260902082204 56 202 1.0 2.0 0.00 0.00 0.00 92 1007.7
20260902081705 57 202 0.0 2.0 0.00 0.00 0.00 92 1007.5
20260902081205 57 202 0.0 0.0 0.00 0.00 0.00 92 1007.5
20260902080704 57 202 0.0 0.0 0.00 0.00 0.00 92 1007.5
20260902080205 57 202 0.0 2.0 0.00 0.00 0.00 91 1007.6
20260902075703 57 202 0.0 1.0 0.00 0.00 0.00 91 1007.7
20260902075204 57 202 2.0 3.0 0.00 0.00 0.00 90 1007.8
20260902074704 58 51 0.0 0.0 0.00 0.00 0.00 90 1007.8
20260902074204 58 51 0.0 2.0 0.00 0.00 0.00 91 1007.8
20260902073705 59 51 0.0 2.0 0.00 0.00 0.00 90 1007.8
20260902073204 59 51 0.0 0.0 0.00 0.00 0.00 90 1007.8
20260902072704 59 51 0.0 0.0 0.00 0.00 0.00 90 1007.9
20260902072204 59 51 0.0 1.0 0.00 0.00 0.00 89 1008.1
20260902071704 60 51 1.0 2.0 0.00 0.00 0.00 89 1008.0
20260902071205 60 51 0.0 1.0 0.00 0.00 0.00 89 1007.9
20260902070704 60 51 0.0 0.0 0.00 0.00 0.00 89 1008.0
20260902070205 60 51 0.0 0.0 0.00 0.00 0.00 89 1008.0
20260902065704 60 51 0.0 0.0 0.00 0.00 0.00 89 1008.0
20260902065204 61 51 0.0 0.0 0.00 0.00 0.00 88 1008.1
20260902064705 61 51 0.0 0.0 0.00 0.00 0.00 88 1008.1
20260902064204 61 51 0.0 0.0 0.00 0.00 0.00 88 1008.1
20260902063703 61 51 0.0 1.0 0.00 0.00 0.00 88 1008.2
20260902062705 61 51 0.0 0.0 0.00 0.00 0.00 87 1008.3
20260902061705 61 51 0.0 0.0 0.00 0.00 0.00 87 1008.3
20260902061203 61 51 0.0 2.0 0.00 0.00 0.00 87 1008.2
20260902060204 61 41 1.0 3.0 0.00 0.00 0.00 87 1008.4
20260902055204 62 302 0.0 0.0 0.00 0.00 0.00 87 1008.5
20260902054705 62 302 0.0 0.0 0.00 0.00 0.00 87 1008.5
20260902054205 62 302 0.0 0.0 0.00 0.00 0.00 87 1008.7
20260902053704 62 302 0.0 0.0 0.00 0.00 0.00 87 1008.6